Location: Pordenone
(45.9640°N, 12.6580°E)
Time: 17:33:43
(UTC+02:00)

ISS - Visible Passes

Search period start: 15 May 2021 00:00
Search period end: 25 May 2021 00:00
Orbit: 417 x 422 km, 51.6° (Epoch: 15 May)

Date Brightness Start Highest point End Pass type
(mag) Time Alt. Az. Time Alt. Az. Time Alt. Az.
15 May -2.1 00:27:58 10° W 00:31:06 34° NNW 00:34:15 10° ENE visible
15 May -1.9 02:05:22 10° WNW 02:08:28 32° N 02:11:34 10° ENE visible
15 May -3.8 03:42:10 10° WNW 03:45:34 90° SSE 03:48:56 10° ESE visible
15 May -3.6 22:03:26 10° SW 22:06:40 47° SE 22:09:56 10° ENE visible
15 May -2.5 23:40:19 10° W 23:43:32 41° NNW 23:46:47 10° ENE visible
16 May -1.8 01:17:50 10° WNW 01:20:53 30° N 01:23:55 10° ENE visible
16 May -3.3 02:54:44 10° WNW 02:58:06 63° NNE 03:01:27 10° ESE visible
16 May -2.6 04:31:54 10° W 04:34:41 24° SW 04:37:28 10° SSE visible
16 May -2.9 21:16:20 10° SSW 21:19:19 30° SE 21:22:20 10° ENE visible
16 May -3.0 22:52:43 10° W 22:56:00 53° NNW 22:59:20 10° ENE visible
17 May -1.8 00:30:15 10° WNW 00:33:17 29° N 00:36:18 10° ENE visible
17 May -2.8 02:07:18 10° WNW 02:10:35 47° NNE 02:13:51 10° E visible
17 May -3.3 03:44:12 10° WNW 03:47:22 37° SW 03:50:30 10° SSE visible
17 May -3.6 22:05:09 10° WSW 22:08:31 75° NNW 22:11:53 10° ENE visible
17 May -1.8 23:42:37 10° WNW 23:45:40 31° N 23:48:44 10° ENE visible
18 May -2.3 01:19:50 10° WNW 01:22:53 37° N 01:22:53 37° N visible
18 May -3.8 21:17:42 10° SW 21:21:02 75° SSE 21:24:25 10° ENE visible
18 May -2.0 22:54:57 10° W 22:58:05 34° NNW 23:01:13 10° ENE visible
19 May -2.0 00:32:20 10° WNW 00:35:27 32° N 00:36:27 27° NE visible
19 May -1.0 02:09:09 10° WNW 02:09:22 11° WNW 02:09:22 11° WNW visible
19 May -2.4 22:07:17 10° W 22:10:30 41° NNW 22:13:44 10° ENE visible
19 May -1.8 23:44:48 10° WNW 23:47:50 30° N 23:50:15 14° ENE visible
20 May -1.7 01:21:41 10° WNW 01:23:11 24° NW 01:23:11 24° NW visible
20 May -2.9 21:19:38 10° W 21:22:57 53° NNW 21:26:16 10° ENE visible
20 May -1.8 22:57:12 10° WNW 23:00:13 29° N 23:03:14 10° ENE visible
21 May -2.6 00:34:14 10° WNW 00:37:05 44° N 00:37:05 44° N visible
21 May -1.8 22:09:32 10° WNW 22:12:36 31° N 22:15:39 10° ENE visible
21 May -2.4 23:46:46 10° WNW 23:49:57 38° NNE 23:51:02 29° ENE visible
22 May -1.0 01:23:34 10° WNW 01:23:58 13° WNW 01:23:58 13° WNW visible
22 May -2.0 21:21:52 10° W 21:24:59 34° N 21:28:07 10° ENE visible
22 May -2.1 22:59:15 10° WNW 23:02:21 32° N 23:05:00 13° ENE visible
23 May -2.2 00:36:03 10° WNW 00:37:56 31° WNW 00:37:56 31° WNW visible
23 May -1.9 22:11:42 10° WNW 22:14:43 30° N 22:17:45 10° ENE visible
23 May -3.5 23:48:34 10° WNW 23:51:56 64° NNE 23:51:56 64° NNE visible
24 May -1.9 21:24:04 10° WNW 21:27:05 29° N 21:30:06 10° ENE visible
24 May -2.9 23:01:06 10° WNW 23:04:23 47° NNE 23:05:58 25° E visible
